Weather History for Kecskemet, Hungary

Change the Weather History Date:

Tuesday, October 9, 2012

  Actual Average (LHBP) Record (LHBP)
Temperature  
Mean Temperature 48 °F -  
Max Temperature 62 °F 62 °F 78 °F (1997)
Min Temperature 33 °F 44 °F 32 °F (2002)
Degree Days  
Heating Degree Days 18    
Moisture  
Dew Point 37 °F    
Average Humidity 69    
Maximum Humidity 100    
Minimum Humidity 34    
Precipitation  
Precipitation 0.00 in - - ()
Sea Level Pressure  
Sea Level Pressure 29.93 in    
Wind  
Wind Speed 3 mph ()    
Max Wind Speed 11 mph    
Max Gust Speed 22 mph    
Visibility 4.5 miles    
Events Fog , Rain    
Averages and records for this station are not official NWS values.
T = Trace of Precipitation, MM = Missing Value Source: Averaged Metar Reports

Daily Weather History Graph

Daily Weather History Graph

Search for Another Location

Airport:

Trip Planner

Search our weather history database for the weather conditions in past years. The results will help you decide how hot, cold, wet, or windy it might be!

Date:

Astronomy

Oct. 09, 2012 Rise Set
Actual Time 6:50 AM CEST 6:04 PM CEST
Civil Twilight 6:20 AM CEST 6:35 PM CEST
Nautical Twilight 5:45 AM CEST 7:10 PM CEST
Astronomical Twilight 5:09 AM CEST 7:45 PM CEST
Moon No Moon Rise 2:41 PM CEST (10/9)
Length of Visible Light 12h 14m
Length of Day
11h 13m
Last Quarter, 39% of the Moon is Illuminated
Oct 9
Last Quarter
Oct 15
New
Oct 22
First Quarter
Oct 29
Full
Nov 7
Last Quarter

Hourly Weather History & Observations

Time (CEST) Temp. Windchill Dew Point Humidity Pressure Visibility Wind Dir Wind Speed Gust Speed Precip Events Conditions
12:15 AM 41.0 °F - 35.6 °F 81% 30.06 in - WNW 2.2 mph - N/A   Clear
12:45 AM 39.2 °F - 35.6 °F 87% 30.06 in - West 2.2 mph - N/A   Clear
1:15 AM 39.2 °F 36.0 °F 35.6 °F 87% 30.06 in - West 4.5 mph - N/A   Clear
1:45 AM 39.2 °F - 35.6 °F 87% 30.06 in - West 2.2 mph - N/A   Clear
2:15 AM 39.2 °F - 35.6 °F 87% 30.04 in - Calm Calm - N/A   Clear
2:45 AM 39.2 °F - 35.6 °F 87% 30.04 in - West 2.2 mph - N/A   Clear
3:15 AM 37.4 °F - 35.6 °F 93% 30.04 in - Calm Calm - N/A   Clear
3:45 AM - - - N/A% - 3.1 mi Variable 2.2 mph - N/A   Clear
4:15 AM 37.4 °F - 35.6 °F 93% 30.01 in - Calm Calm - N/A   Clear
4:45 AM 35.6 °F - 35.6 °F 100% 30.01 in - Calm Calm - N/A   Clear
5:15 AM 35.6 °F - 35.6 °F 100% 30.01 in - Calm Calm - N/A   Clear
5:45 AM 35.6 °F - 33.8 °F 93% 29.98 in - Calm Calm - N/A   Clear
6:15 AM 35.6 °F - 33.8 °F 93% 29.98 in 6.2 mi Calm Calm - N/A   Partly Cloudy
6:45 AM 33.8 °F - 32.0 °F 93% 29.98 in 6.2 mi SE 2.2 mph - N/A   Scattered Clouds
7:15 AM 35.6 °F - 33.8 °F 93% 29.98 in - Calm Calm - N/A   Clear
7:45 AM 37.4 °F - 35.6 °F 93% 29.98 in - Calm Calm - N/A   Clear
8:45 AM 44.6 °F - 39.2 °F 81% 29.98 in - South 2.2 mph - N/A   Clear
9:15 AM 48.2 °F - 39.2 °F 71% 29.95 in - South 6.7 mph - N/A   Clear
9:45 AM - - - N/A% - - South 11.2 mph - N/A   Clear
10:45 AM 55.4 °F - 37.4 °F 51% 29.95 in - SSW 8.9 mph - N/A   Clear
11:15 AM 55.4 °F - 35.6 °F 47% 29.95 in - South 8.9 mph - N/A   Clear
11:45 AM 57.2 °F - 37.4 °F 48% 29.92 in - South 8.9 mph - N/A   Clear
12:15 PM 59.0 °F - 37.4 °F 45% 29.92 in - South 8.9 mph 22.4 mph N/A   Clear
12:45 PM - - - N/A% - 6.2 mi South 11.2 mph - N/A Rain Light Rain
1:15 PM 60.8 °F - 35.6 °F 39% 29.89 in - South 8.9 mph - N/A   Clear
1:45 PM 60.8 °F - 33.8 °F 36% 29.89 in - South 8.9 mph - N/A   Clear
2:15 PM 60.8 °F - 33.8 °F 36% 29.89 in - South 8.9 mph 20.1 mph N/A   Clear
2:45 PM 62.6 °F - 33.8 °F 34% 29.86 in - South 8.9 mph - N/A   Clear
3:15 PM 60.8 °F - 33.8 °F 36% 29.86 in - South 8.9 mph - N/A   Clear
3:45 PM - - - N/A% - 6.2 mi South 8.9 mph - N/A Rain Light Rain
4:15 PM 62.6 °F - 33.8 °F 34% 29.86 in - SSW 8.9 mph - N/A   Clear
4:45 PM 60.8 °F - 35.6 °F 39% 29.86 in - South 6.7 mph - N/A   Clear
5:15 PM 60.8 °F - 35.6 °F 39% 29.86 in - SSW 4.5 mph - N/A   Clear
5:45 PM 59.0 °F - 35.6 °F 42% 29.86 in - SSW 4.5 mph - N/A   Clear
6:15 PM 57.2 °F - 35.6 °F 44% 29.86 in - South 4.5 mph - N/A   Clear
6:45 PM - - - N/A% - 1.9 mi Variable 4.5 mph - N/A Fog Clear
7:15 PM 51.8 °F - 41.0 °F 67% 29.86 in - Calm Calm - N/A   Clear
7:45 PM 51.8 °F - 42.8 °F 71% 29.86 in - Calm Calm - N/A   Clear
8:15 PM 51.8 °F - 41.0 °F 67% 29.86 in - Calm Calm - N/A   Clear
8:45 PM 50.0 °F - 41.0 °F 71% 29.86 in - Calm Calm - N/A   Clear
9:15 PM 50.0 °F - 41.0 °F 71% 29.86 in - SW 2.2 mph - N/A   Clear
9:45 PM - - - N/A% - 1.9 mi Variable 4.5 mph - N/A Fog Clear
10:15 PM 46.4 °F - 41.0 °F 81% 29.86 in - SSW 2.2 mph - N/A   Clear
10:45 PM 44.6 °F - 41.0 °F 87% 29.86 in - Calm Calm - N/A   Clear
11:15 PM 44.6 °F - 41.0 °F 87% 29.86 in - Calm Calm - N/A   Clear
11:45 PM 44.6 °F - 41.0 °F 87% 29.86 in - Calm Calm - N/A   Clear